Radiation Dose at Monitoring Post of Fukushima Daini Nuclear Power Station
Date,Time,MP-1(microSv/h),MP-2(microSv/h),MP-3(microSv/h),MP-4(microSv/h),MP-5(microSv/h),MP-6(microSv/h),MP-7(microSv/h),Wind Direction,Wind Velocity(m/s),Rain
2023/06/29,00:00,0.153,0.144,0.214,0.205,0.216,0.126,0.089,north,4.1,Yes
2023/06/29,00:10,0.154,0.144,0.217,0.208,0.219,0.125,0.088,north,4.5,Yes
2023/06/29,00:20,0.154,0.145,0.215,0.206,0.217,0.124,0.088,north,4.6,Yes
2023/06/29,00:30,0.151,0.143,0.214,0.206,0.216,0.125,0.087,north,4.2,Yes
2023/06/29,00:40,0.152,0.143,0.213,0.205,0.217,0.122,0.086,north,4.4,Yes
2023/06/29,00:50,0.148,0.139,0.210,0.201,0.214,0.121,0.083,north,4.8,No
2023/06/29,01:00,0.145,0.137,0.210,0.202,0.213,0.120,0.082,north,5.0,Yes
2023/06/29,01:10,0.146,0.136,0.208,0.200,0.213,0.117,0.080,north-northwest,5.5,Yes
2023/06/29,01:20,0.144,0.134,0.205,0.197,0.208,0.117,0.078,north-northwest,5.3,Yes
2023/06/29,01:30,0.144,0.135,0.207,0.199,0.211,0.116,0.078,north-northwest,5.9,Yes
2023/06/29,01:40,0.144,0.134,0.203,0.197,0.209,0.115,0.078,north-northwest,5.7,Yes
2023/06/29,01:50,0.143,0.135,0.204,0.195,0.206,0.116,0.079,north,4.2,Yes
2023/06/29,02:00,0.144,0.135,0.204,0.198,0.210,0.116,0.078,north,2.5,Yes
2023/06/29,02:10,0.143,0.133,0.202,0.197,0.209,0.115,0.078,north,1.8,Yes
2023/06/29,02:20,0.141,0.133,0.204,0.197,0.207,0.115,0.077,north-northeast,1.6,Yes
2023/06/29,02:30,0.143,0.132,0.204,0.196,0.209,0.115,0.077,north,0.7,No
2023/06/29,02:40,0.141,0.130,0.202,0.192,0.206,0.112,0.076,east-northeast,0.9,No
2023/06/29,02:50,0.140,0.131,0.202,0.195,0.205,0.112,0.074,-,CALM,No
2023/06/29,03:00,0.141,0.129,0.201,0.194,0.206,0.112,0.074,southeast,0.6,No
2023/06/29,03:10,0.139,0.129,0.201,0.192,0.204,0.111,0.074,south-southeast,0.7,No
2023/06/29,03:20,0.139,0.130,0.201,0.194,0.205,0.112,0.073,south-southeast,1.0,No
2023/06/29,03:30,0.141,0.128,0.199,0.193,0.204,0.111,0.073,south,1.4,No
2023/06/29,03:40,0.139,0.129,0.201,0.191,0.203,0.110,0.074,south,1.3,No
2023/06/29,03:50,0.139,0.129,0.199,0.193,0.206,0.110,0.073,south-southeast,1.0,No
2023/06/29,04:00,0.140,0.128,0.200,0.192,0.205,0.111,0.073,south,1.1,No
2023/06/29,04:10,0.138,0.129,0.200,0.191,0.203,0.110,0.073,southwest,1.0,No
2023/06/29,04:20,0.139,0.129,0.199,0.194,0.205,0.112,0.073,south-southwest,1.4,No
2023/06/29,04:30,0.139,0.129,0.201,0.194,0.205,0.110,0.073,southwest,2.4,No
2023/06/29,04:40,0.139,0.129,0.201,0.191,0.203,0.110,0.072,south-southwest,2.0,No
2023/06/29,04:50,0.140,0.128,0.200,0.194,0.207,0.112,0.073,south-southwest,3.2,No
2023/06/29,05:00,0.139,0.129,0.200,0.193,0.204,0.110,0.073,west-southwest,2.8,No
2023/06/29,05:10,0.139,0.128,0.200,0.194,0.205,0.111,0.074,southwest,2.8,No
2023/06/29,05:20,0.140,0.129,0.202,0.193,0.205,0.111,0.074,southwest,1.8,No
2023/06/29,05:30,0.139,0.129,0.200,0.194,0.203,0.111,0.073,southwest,2.9,No
2023/06/29,05:40,0.140,0.128,0.200,0.193,0.204,0.111,0.073,southwest,2.3,No
2023/06/29,05:50,0.140,0.129,0.203,0.192,0.207,0.113,0.074,south-southwest,2.4,No
2023/06/29,06:00,0.139,0.130,0.200,0.195,0.205,0.111,0.073,south-southwest,2.8,No
2023/06/29,06:10,0.140,0.130,0.202,0.195,0.203,0.112,0.072,west-southwest,3.3,No
2023/06/29,06:20,0.140,0.129,0.201,0.193,0.202,0.111,0.073,west-southwest,2.9,No
2023/06/29,06:30,0.139,0.128,0.200,0.194,0.206,0.110,0.073,southwest,2.3,No
2023/06/29,06:40,0.139,0.128,0.203,0.194,0.205,0.112,0.073,south-southwest,3.0,No
2023/06/29,06:50,0.140,0.128,0.200,0.191,0.203,0.111,0.073,south,2.8,No
2023/06/29,07:00,0.139,0.129,0.199,0.192,0.204,0.111,0.073,south-southwest,2.0,No
2023/06/29,07:10,0.139,0.129,0.200,0.194,0.206,0.112,0.073,south-southwest,1.9,No
2023/06/29,07:20,0.140,0.129,0.202,0.193,0.205,0.111,0.073,south,2.4,No
2023/06/29,07:30,0.138,0.129,0.201,0.192,0.203,0.111,0.073,south-southwest,2.4,No
2023/06/29,07:40,0.139,0.129,0.201,0.191,0.203,0.111,0.074,southwest,2.4,No
2023/06/29,07:50,0.141,0.128,0.199,0.191,0.203,0.112,0.073,southwest,2.4,No
2023/06/29,08:00,0.140,0.129,0.200,0.191,0.204,0.112,0.073,south-southwest,2.0,No
2023/06/29,08:10,0.138,0.129,0.200,0.191,0.204,0.111,0.073,south-southwest,1.7,No
2023/06/29,08:20,0.139,0.129,0.200,0.192,0.203,0.110,0.073,south-southwest,0.7,No
2023/06/29,08:30,0.141,0.128,0.199,0.192,0.205,0.111,0.073,southeast,1.3,No
2023/06/29,08:40,0.139,0.129,0.200,0.193,0.204,0.111,0.073,south-southeast,1.6,No
2023/06/29,08:50,0.139,0.129,0.200,0.193,0.205,0.112,0.073,south,1.4,No
2023/06/29,09:00,0.138,0.129,0.201,0.193,0.206,0.110,0.073,south,1.5,No
2023/06/29,09:10,0.140,0.129,0.201,0.194,0.206,0.112,0.073,-,CALM,No
2023/06/29,09:20,0.140,0.131,0.201,0.194,0.207,0.112,0.074,southeast,1.0,No
2023/06/29,09:30,0.139,0.129,0.201,0.194,0.207,0.111,0.073,-,CALM,No
2023/06/29,09:40,0.140,0.131,0.201,0.195,0.206,0.112,0.073,west-northwest,1.5,No
2023/06/29,09:50,0.141,0.130,0.202,0.196,0.206,0.113,0.073,east-southeast,1.6,No
2023/06/29,10:00,0.140,0.130,0.202,0.195,0.204,0.112,0.074,southeast,3.2,No
2023/06/29,10:10,-,-,-,-,-,-,-,-,-,-
2023/06/29,10:20,0.140,0.130,0.201,0.194,0.206,0.112,0.073,south-southeast,6.7,No
2023/06/29,10:30,0.139,0.130,0.202,0.194,0.206,0.112,0.073,south,5.7,No
2023/06/29,10:40,0.140,0.130,0.202,0.194,0.206,0.112,0.073,south,5.5,No
2023/06/29,10:50,0.140,0.130,0.203,0.195,0.206,0.113,0.074,south,5.0,No
2023/06/29,11:00,0.140,0.130,0.203,0.195,0.207,0.113,0.073,south-southeast,3.8,No
2023/06/29,11:10,0.141,0.130,0.203,0.195,0.206,0.112,0.073,south-southeast,4.0,No
2023/06/29,11:20,0.140,0.130,0.204,0.195,0.205,0.112,0.073,south-southeast,3.8,No
2023/06/29,11:30,0.139,0.130,0.203,0.195,0.207,0.112,0.074,south-southeast,4.2,No
2023/06/29,11:40,0.141,0.130,0.204,0.195,0.206,0.112,0.074,south,4.8,No
2023/06/29,11:50,0.141,0.130,0.204,0.196,0.207,0.113,0.073,south,5.4,No
2023/06/29,12:00,0.140,0.129,0.204,0.196,0.206,0.112,0.074,south,5.2,No
2023/06/29,12:10,0.140,0.130,0.203,0.195,0.206,0.112,0.074,south-southeast,5.2,No
2023/06/29,12:20,0.140,0.131,0.203,0.195,0.206,0.112,0.073,south-southeast,6.2,No
2023/06/29,12:30,0.140,0.130,0.202,0.194,0.205,0.113,0.074,south-southeast,7.8,No
2023/06/29,12:40,0.142,0.130,0.203,0.195,0.205,0.113,0.073,south,7.9,No
2023/06/29,12:50,0.140,0.130,0.202,0.195,0.206,0.113,0.073,south,7.9,No
2023/06/29,13:00,0.141,0.131,0.204,0.195,0.206,0.113,0.073,south,6.9,No
2023/06/29,13:10,0.140,0.130,0.203,0.195,0.205,0.113,0.074,south,7.7,No
2023/06/29,13:20,0.140,0.129,0.204,0.194,0.206,0.113,0.073,south,9.6,No
2023/06/29,13:30,0.140,0.129,0.204,0.194,0.208,0.113,0.072,south,7.1,No
2023/06/29,13:40,0.141,0.130,0.202,0.195,0.207,0.113,0.073,south,7.0,No
2023/06/29,13:50,0.140,0.131,0.204,0.196,0.207,0.114,0.073,south,6.3,No
2023/06/29,14:00,0.141,0.131,0.203,0.195,0.207,0.113,0.073,south,6.2,Yes
2023/06/29,14:10,0.140,0.131,0.204,0.196,0.207,0.114,0.074,south,7.9,Yes
2023/06/29,14:20,0.142,0.131,0.204,0.195,0.207,0.114,0.074,south,7.5,Yes
2023/06/29,14:30,0.140,0.132,0.204,0.195,0.206,0.113,0.074,south-southwest,7.2,Yes
2023/06/29,14:40,0.141,0.132,0.204,0.195,0.206,0.113,0.073,south-southwest,5.6,No
2023/06/29,14:50,0.140,0.131,0.204,0.195,0.207,0.114,0.073,south,5.3,No
2023/06/29,15:00,0.140,0.131,0.205,0.195,0.207,0.113,0.073,south,4.7,No
2023/06/29,15:10,0.141,0.131,0.204,0.197,0.208,0.114,0.074,south-southwest,5.1,No
2023/06/29,15:20,0.140,0.131,0.204,0.196,0.207,0.114,0.073,south-southwest,5.7,No
2023/06/29,15:30,0.142,0.130,0.204,0.197,0.207,0.114,0.073,south-southwest,4.6,No
2023/06/29,15:40,0.141,0.131,0.204,0.197,0.208,0.113,0.074,south-southwest,3.0,No
2023/06/29,15:50,0.142,0.131,0.203,0.196,0.208,0.114,0.073,south-southwest,3.9,No
2023/06/29,16:00,0.143,0.131,0.205,0.196,0.207,0.114,0.073,south-southwest,3.4,No
2023/06/29,16:10,0.141,0.131,0.204,0.197,0.208,0.114,0.074,south-southwest,3.6,No
2023/06/29,16:20,0.141,0.130,0.204,0.195,0.208,0.113,0.073,west-southwest,3.2,No
2023/06/29,16:30,0.141,0.130,0.203,0.196,0.206,0.114,0.073,west-southwest,1.9,No
2023/06/29,16:40,0.140,0.131,0.204,0.196,0.206,0.114,0.074,west-northwest,0.7,No
2023/06/29,16:50,0.142,0.130,0.203,0.195,0.208,0.113,0.073,-,CALM,No
2023/06/29,17:00,0.141,0.131,0.204,0.195,0.208,0.113,0.074,north-northwest,1.0,No
2023/06/29,17:10,0.142,0.130,0.204,0.195,0.207,0.113,0.074,northwest,1.2,No
2023/06/29,17:20,0.141,0.130,0.203,0.194,0.207,0.113,0.073,south-southwest,0.7,No
2023/06/29,17:30,0.141,0.130,0.203,0.195,0.207,0.113,0.073,south,2.3,No
2023/06/29,17:40,0.140,0.130,0.203,0.195,0.207,0.113,0.073,south-southwest,2.0,No
2023/06/29,17:50,0.140,0.129,0.204,0.196,0.208,0.113,0.073,southwest,2.5,No
2023/06/29,18:00,0.140,0.131,0.203,0.198,0.207,0.113,0.074,west-southwest,3.7,No
2023/06/29,18:10,0.140,0.131,0.205,0.200,0.205,0.114,0.074,west-southwest,2.5,No
2023/06/29,18:20,0.141,0.131,0.206,0.198,0.204,0.114,0.073,west-southwest,1.7,No
2023/06/29,18:30,0.143,0.131,0.206,0.195,0.206,0.113,0.073,west-southwest,1.4,No
2023/06/29,18:40,0.142,0.132,0.204,0.197,0.205,0.113,0.074,west-southwest,1.8,No
2023/06/29,18:50,0.141,0.131,0.204,0.198,0.205,0.114,0.075,west-northwest,3.1,No
2023/06/29,19:00,0.140,0.131,0.207,0.198,0.207,0.113,0.074,northwest,2.7,No
2023/06/29,19:10,0.142,0.132,0.205,0.196,0.210,0.113,0.073,west-northwest,3.3,No
2023/06/29,19:20,0.143,0.132,0.204,0.196,0.207,0.115,0.074,west-northwest,3.5,No
2023/06/29,19:30,0.142,0.130,0.206,0.197,0.207,0.114,0.074,west-northwest,3.9,No
2023/06/29,19:40,0.142,0.130,0.206,0.197,0.207,0.114,0.073,west-northwest,3.5,No
2023/06/29,19:50,0.143,0.132,0.204,0.196,0.210,0.114,0.074,west-northwest,3.0,No
2023/06/29,20:00,0.142,0.131,0.207,0.197,0.208,0.114,0.074,west-northwest,3.0,No
2023/06/29,20:10,0.141,0.131,0.207,0.198,0.206,0.113,0.074,west-northwest,3.1,No
2023/06/29,20:20,0.142,0.132,0.204,0.196,0.208,0.114,0.073,west-northwest,2.0,No
2023/06/29,20:30,0.142,0.131,0.206,0.197,0.209,0.114,0.074,west-northwest,1.5,No
2023/06/29,20:40,0.141,0.131,0.206,0.197,0.207,0.113,0.074,west-northwest,2.6,No
2023/06/29,20:50,0.143,0.132,0.204,0.196,0.206,0.113,0.074,west-northwest,2.9,No
2023/06/29,21:00,0.142,0.131,0.207,0.197,0.209,0.114,0.074,west-northwest,4.1,No
2023/06/29,21:10,0.140,0.132,0.206,0.198,0.208,0.113,0.074,west-northwest,4.1,No
2023/06/29,21:20,0.142,0.131,0.203,0.197,0.205,0.114,0.074,west-northwest,3.7,No
2023/06/29,21:30,0.144,0.131,0.207,0.197,0.206,0.114,0.075,west-northwest,2.7,No
2023/06/29,21:40,0.141,0.131,0.207,0.198,0.209,0.114,0.074,west-northwest,2.8,No
2023/06/29,21:50,0.142,0.131,0.204,0.196,0.207,0.112,0.073,west-northwest,2.2,No
2023/06/29,22:00,0.143,0.131,0.207,0.197,0.206,0.114,0.075,northwest,2.7,No
2023/06/29,22:10,0.142,0.133,0.206,0.198,0.208,0.113,0.074,northwest,2.8,No
2023/06/29,22:20,0.141,0.132,0.204,0.196,0.210,0.112,0.074,north-northwest,2.5,No
2023/06/29,22:30,0.143,0.130,0.206,0.196,0.207,0.114,0.075,north-northwest,1.4,No
2023/06/29,22:40,0.142,0.132,0.207,0.198,0.206,0.114,0.074,-,CALM,No
2023/06/29,22:50,0.142,0.132,0.205,0.196,0.210,0.113,0.073,west,0.7,No
2023/06/29,23:00,0.143,0.131,0.206,0.196,0.208,0.115,0.074,-,CALM,No
2023/06/29,23:10,0.142,0.133,0.206,0.198,0.207,0.114,0.074,west-northwest,1.2,No
2023/06/29,23:20,0.141,0.131,0.205,0.196,0.207,0.113,0.074,west-southwest,1.0,No
2023/06/29,23:30,0.143,0.131,0.206,0.197,0.210,0.115,0.074,-,CALM,No
2023/06/29,23:40,0.143,0.131,0.206,0.198,0.207,0.114,0.074,north-northwest,0.7,No
2023/06/29,23:50,0.141,0.131,0.205,0.196,0.206,0.113,0.074,north,1.3,No
